Dati Storici

Data ora Umidita' aria (%) Temperatura aria (°C) Rad globale (W/m²) Gonioanemometro (°) Tacoanemometro (m/s) Pioggia (mm)
10-06-2020 21:30 97.9 % 13.963 -75.792 0.001 0 0
10-06-2020 21:20 97.9 % 14.007 -72.89 0.003 0 0
10-06-2020 21:10 97.9 % 13.966 -78.182 0.002 0 0
10-06-2020 21:00 97.9 % 14.095 -75.064 0.004 0 0
10-06-2020 20:50 97.9 % 14.212 -76.058 -0.002 0 0
10-06-2020 20:40 97.9 % 14.185 -76.848 -0.001 0 0
10-06-2020 20:30 97.9 % 14.295 -74.955 -0.002 0 0
10-06-2020 20:20 97.9 % 14.481 -79.076 -0.001 0 0
10-06-2020 20:10 97.9 % 14.551 -78.884 0 0 0
10-06-2020 20:00 97.9 % 14.542 -48.623 -0 0 0
10-06-2020 19:50 97.9 % 14.551 -76.944 0.001 0 0
10-06-2020 19:40 97.9 % 14.613 -75.914 0.002 0 0
10-06-2020 19:30 97.9 % 14.638 -80.612 0.39 0 0
10-06-2020 19:20 97.9 % 14.784 -80.238 0.26 0 0
10-06-2020 19:10 97.9 % 14.858 -80.331 0 0 0
10-06-2020 19:00 97.9 % 14.788 -52.698 2.145 0 0
10-06-2020 18:50 97.9 % 14.809 -60.655 0.002 0 0
10-06-2020 18:40 97.9 % 14.788 -46.991 0.002 0 0
10-06-2020 18:30 97.9 % 14.594 -50.506 0.87 0 0
10-06-2020 18:20 97.9 % 14.763 -74.807 0.002 0 0

I dati sono presentati in modo automatico a scopo informativo. In seguito a verifica i dati possono subire modifiche o essere invalidati e non riportati negli archivi definitivi.